THOR ABLESTAR DEB, 745

Orbit data source: Space-Track

THOR ABLESTAR DEB, 745 is space debris in LEO originally from a launch on Sat, 28 Sep 1963 UTC launched from the Air Force Western Test Range (AFWTR). Debris objects in space refer to the collection of defunct objects orbiting the Earth. Examples of debris include non-operational satellites, rocket bodies, and fragments generated from explosions, collisions, or faulty payload assembly.

Loading next visibility...
Identifier
745, 1963-038E
Orbit
LEO
Last TLE update
3 hours ago
Origin
Manufacturer
Unknown
Mission
Spacecraft
Bus & Motor
Unknown
Mass
Unknown
Launch date (UTC)
1963-09-28 (62 years ago)
Launch vehicle
Unknown
Launch site
Air Force Western Test Range (AFWTR)
Object type
Payload
Rocket body
Debris
Shape & HBR
Unknown
Radar Cross Section
Small (<0.1 m²)

Expand to show TLE details & history

TLE from 3 hours ago
0 THOR ABLESTAR DEB
1   745U 63038E   25182.21642541  .00000174  00000-0  23721-3 0  9999
2   745  89.9959 336.4459 0016164 231.8056 250.3918 13.55432584 44000
Epoch: 2025-07-01T05:11Z
TLE epoch observation values (Epoch: 2025-07-01T05:11:39.155Z)
Latitude
58.06908°
Longitude
159.01115°
Altitude
1,066.255 km
Speed
7.322 km/s
True Right ascension
10h 25m 45s
True Declination
57° 55' 15"
Sunlit
Object was in daylight at epoch
Visualization orbit readout
Latitude
72.24019°
Longitude
-20.96963°
Altitude
1,076.109 km
Speed
7.315 km/s
Apparent Right ascension
06h 34m 57s
Apparent Declination
42° 27' 01"
Sunlit
Object is in daylight
Visualization observer readout
Local Sidereal Time
20:07:38
Azimuth
16.942° NNE
Elevation
-5.002°
Doppler factor
1
Orbital elements
Apogee altitude
1,061.385 km
Perigee altitude
1,037.374 km
Semi-major axis
7,427.517 km
Eccentricity
0.00162
Inclination
89.9959°
RAAN
336.4459°
Arg. of periapsis
231.8056°
True anomaly
Unknown
Mean anomaly
250.3918°
Eccentric anomaly
Unknown
Mean motion
3.39061 °/min
Orbital period
106.18 mins
BSTAR
0.00023721
Loading maneuver chart data...
Loading SW <> Apogee altitude chart data...

THOR ABLESTAR DEB Visibility forecast

Observer location: undefined°, undefined°

Span
Click to sort rows by Start time (UTC) header in descending order
Start Az.
Max El. time (UTC)
Max El. Az.
Max El.
End time (UTC)
End Az.
12 mins2025-07-01 10:00:30.416Z149.234° SSE2025-07-01 10:06:30.416Z80.449° E35.004°2025-07-01 10:12:30.416Z11.419° NNE
9 mins2025-07-01 11:48:30.416Z227.714° WSW2025-07-01 11:52:30.416Z274.492° WNW25.702°2025-07-01 11:57:30.416Z331.322° NNW
6 mins2025-07-01 21:10:30.416Z48.846° ENE2025-07-01 21:13:30.416Z80.263° E16.794°2025-07-01 21:16:30.416Z110.679° ESE
11 mins2025-07-01 22:54:30.416Z356.238° N2025-07-01 22:59:30.416Z303.707° NW42.893°2025-07-01 23:05:30.416Z194.553° SSW
|